Location: Unspecified
(40.9447°N, 78.9903°W)
Time: 22:09:27
(UTC-04:00)

Cosmos 2058 - Pass Details

Date: 29 July 2021
Orbit: 560 x 584 km, 82.5° (Epoch: 28 September)

Event Time Altitude Azimuth Distance (km) Brightness Sun altitude
Rises 22:02:13 0° 219° (SW) 2,777 6.4 -14.6°
Reaches altitude 10° 22:04:47 10° 234° (SW) 1,888 5.7 -15.0°
Maximum altitude 22:08:04 22° 286° (WNW) 1,285 5.5 -15.4°
Drops below altitude 10° 22:11:23 10° 338° (NNW) 1,908 6.6 -15.9°
Sets 22:14:00 0° 354° (N) 2,815 7.2 -16.2°
